KD8DLP-13 Weather Reports


Display with metric or nautical units.
time (UTC)temp
F
wind
direction
speed
MPH
gust
MPH
rain 1hr
in
rain 24hr
in
rain mn
in
humidity
%
barometer
mb
20260509090115 52 229 1.0 1.0 0.00 0.00 0.00 88 1003.7
20260509085612 52 1 1.0 2.0 0.00 0.00 0.00 88 1004.1
20260509085108 52 237 1.0 1.0 0.00 0.00 0.00 88 1004.0
20260509084605 52 118 2.0 3.0 0.00 0.00 0.00 88 1003.9
20260509084102 52 176 2.0 2.0 0.00 0.00 0.00 87 1004.0
20260509083559 52 86 1.0 2.0 0.00 0.00 0.00 86 1003.9
20260509083055 52 214 1.0 2.0 0.00 0.00 0.00 86 1004.1
20260509082553 52 254 1.0 2.0 0.00 0.00 0.00 85 1004.2
20260509082050 52 43 2.0 3.0 0.00 0.00 0.00 85 1004.0
20260509081547 52 147 3.0 3.0 0.00 0.00 0.00 84 1004.0
20260509081044 52 154 1.0 2.0 0.00 0.00 0.00 84 1004.5
20260509080542 52 149 1.0 1.0 0.00 0.00 0.00 83 1004.5
20260509080040 52 239 1.0 1.0 0.00 0.00 0.00 83 1004.6
20260509075537 52 222 1.0 1.0 0.00 0.00 0.00 82 1004.5
20260509075035 52 203 1.0 1.0 0.00 0.00 0.00 82 1004.5
20260509074532 52 228 1.0 1.0 0.00 0.00 0.00 82 1004.8
20260509074028 52 337 1.0 1.0 0.00 0.00 0.00 81 1004.9
20260509073525 51 197 1.0 2.0 0.00 0.00 0.00 81 1004.9
20260509073021 51 262 1.0 2.0 0.00 0.00 0.00 79 1004.9
20260509072518 52 299 1.0 1.0 0.00 0.00 0.00 79 1004.9
20260509072015 52 134 2.0 2.0 0.00 0.00 0.00 78 1005.0
20260509071511 51 212 0.0 0.0 0.00 0.00 0.00 77 1005.2
20260509071009 51 56 1.0 2.0 0.00 0.00 0.00 75 1005.3
20260509070506 51 202 1.0 1.0 0.00 0.00 0.00 74 1005.5
20260509070002 51 230 1.0 2.0 0.00 0.00 0.00 73 1005.3
20260509065458 52 271 1.0 1.0 0.00 0.00 0.00 71 1005.3
20260509064954 52 254 1.0 1.0 0.00 0.00 0.00 69 1005.4
20260509064452 52 259 1.0 1.0 0.00 0.00 0.00 68 1005.6
20260509063950 52 136 0.0 1.0 0.00 0.00 0.00 66 1005.4
20260509063445 52 232 0.0 1.0 0.00 0.00 0.00 64 1005.5
20260509062942 52 256 1.0 1.0 0.00 0.00 0.00 61 1005.6
20260509062439 52 227 1.0 1.0 0.00 0.00 0.00 58 1005.6
20260509061937 52 221 1.0 1.0 0.00 0.00 0.00 56 1005.6
20260509061434 52 223 1.0 1.0 0.00 0.00 0.00 54 1005.7
20260509060931 52 170 1.0 2.0 0.00 0.00 0.00 52 1005.8
20260509060429 52 245 1.0 2.0 0.00 0.00 0.00 49 1005.7
20260509055924 52 234 1.0 2.0 0.00 0.00 0.00 48 1005.9
20260509055419 53 118 2.0 5.0 0.00 0.00 0.00 47 1005.8
20260509054916 53 82 2.0 2.0 0.00 0.00 0.00 46 1005.9
20260509054413 53 118 1.0 2.0 0.00 0.00 0.00 45 1005.9
20260509053911 53 74 1.0 1.0 0.00 0.00 0.00 45 1005.9
20260509053408 53 252 1.0 2.0 0.00 0.00 0.00 45 1006.2
20260509052901 53 285 2.0 3.0 0.00 0.00 0.00 45 1006.0
20260509052358 53 97 2.0 2.0 0.00 0.00 0.00 46 1006.0
20260509051855 52 339 1.0 2.0 0.00 0.00 0.00 46 1006.1
20260509051354 52 126 1.0 2.0 0.00 0.00 0.00 45 1006.0
20260509050850 52 195 1.0 2.0 0.00 0.00 0.00 46 1006.0
20260509050347 52 90 3.0 5.0 0.00 0.00 0.00 45 1005.8
20260509045843 52 109 2.0 3.0 0.00 0.00 0.00 45 1006.0
20260509045341 51 101 1.0 2.0 0.00 0.00 0.00 46 1006.2
20260509044838 51 32 1.0 1.0 0.00 0.00 0.00 44 1006.1
20260509044335 52 210 1.0 1.0 0.00 0.00 0.00 44 1006.0
20260509043831 52 158 1.0 2.0 0.00 0.00 0.00 43 1006.0
20260509043327 52 177 1.0 2.0 0.00 0.00 0.00 43 1006.3
20260509042823 52 212 1.0 1.0 0.00 0.00 0.00 43 1006.2
20260509042320 52 226 1.0 1.0 0.00 0.00 0.00 41 1006.0
20260509041817 52 197 1.0 2.0 0.00 0.00 0.00 41 1006.2
20260509041314 52 231 1.0 2.0 0.00 0.00 0.00 40 1006.4
20260509040812 52 266 0.0 1.0 0.00 0.00 0.00 41 1006.3
20260509040309 52 199 1.0 1.0 0.00 0.00 0.00 42 1006.6
20260509035806 52 268 0.0 1.0 0.00 0.00 0.00 39 1006.4
20260509035306 52 153 1.0 1.0 0.00 0.00 0.00 39 1006.6
20260509034759 52 237 1.0 1.0 0.00 0.00 0.00 40 1006.8
20260509034257 52 210 2.0 2.0 0.00 0.00 0.00 39 1006.7
20260509033754 52 249 1.0 1.0 0.00 0.00 0.00 38 1006.6
20260509033251 52 203 0.0 1.0 0.00 0.00 0.00 40 1007.0
20260509032748 53 249 1.0 2.0 0.00 0.00 0.00 39 1006.7
20260509032245 53 252 1.0 1.0 0.00 0.00 0.00 43 1006.7
20260509031742 53 249 1.0 1.0 0.00 0.00 0.00 45 1007.1
20260509031240 53 251 1.0 1.0 0.00 0.00 0.00 37 1006.8
20260509030738 53 293 1.0 1.0 0.00 0.00 0.00 37 1007.1
20260509030235 53 247 1.0 1.0 0.00 0.00 0.00 36 1006.9
20260509025732 53 249 1.0 1.0 0.00 0.00 0.00 35 1006.9
20260509025227 53 41 1.0 1.0 0.00 0.00 0.00 36 1007.1
20260509024723 53 217 1.0 1.0 0.00 0.00 0.00 35 1007.3
20260509024219 53 205 1.0 1.0 0.00 0.00 0.00 35 1007.2
20260509023716 53 252 1.0 2.0 0.00 0.00 0.00 36 1007.4
20260509023214 53 225 1.0 1.0 0.00 0.00 0.00 36 1007.5
20260509022709 52 267 0.0 0.0 0.00 0.00 0.00 43 1007.4
20260509022208 51 277 0.0 0.0 0.00 0.00 0.00 41 1007.4
20260509021704 51 270 0.0 0.0 0.00 0.00 0.00 41 1007.5
20260509021202 52 270 0.0 0.0 0.00 0.00 0.00 41 1007.6
20260509020700 53 269 0.0 0.0 0.00 0.00 0.00 39 1007.5
20260509020156 54 269 0.0 0.0 0.00 0.00 0.00 39 1007.4
20260509015655 55 254 0.0 0.0 0.00 0.00 0.00 36 1007.3
20260509015153 55 247 0.0 0.0 0.00 0.00 0.00 38 1007.3
20260509014649 55 253 1.0 1.0 0.00 0.00 0.00 37 1007.4
20260509014145 55 330 0.0 1.0 0.00 0.00 0.00 35 1007.3
20260509013642 55 262 0.0 1.0 0.00 0.00 0.00 34 1007.4
20260509013138 56 249 0.0 0.0 0.00 0.00 0.00 37 1007.2
20260509012635 56 288 0.0 0.0 0.00 0.00 0.00 33 1007.3
20260509012132 56 224 1.0 2.0 0.00 0.00 0.00 33 1007.2
20260509011630 56 236 1.0 1.0 0.00 0.00 0.00 33 1007.2
20260509011126 56 192 2.0 2.0 0.00 0.00 0.00 33 1007.1
20260509010624 57 277 0.0 1.0 0.00 0.00 0.00 35 1007.3
20260509010120 57 212 1.0 2.0 0.00 0.00 0.00 34 1007.2
20260509005618 57 263 1.0 1.0 0.00 0.00 0.00 32 1007.2
20260509005114 58 296 0.0 1.0 0.00 0.00 0.00 32 1007.3
20260509004610 58 208 1.0 1.0 0.00 0.00 0.00 32 1007.2
20260509004107 58 236 0.0 1.0 0.00 0.00 0.00 34 1007.1
20260509003606 58 261 0.0 0.0 0.00 0.00 0.00 37 1007.2
20260509003103 58 238 0.0 1.0 0.00 0.00 0.00 32 1007.3
20260509002600 59 267 0.0 0.0 0.00 0.00 0.00 35 1007.3
20260509002057 59 263 0.0 0.0 0.00 0.00 0.00 36 1007.5
20260509001555 60 270 0.0 0.0 0.00 0.00 0.00 33 1007.5
20260509001050 60 255 0.0 1.0 0.00 0.00 0.00 29 1007.4
20260509000549 60 276 0.0 1.0 0.00 0.00 0.00 32 1007.7
20260509000045 60 221 0.0 1.0 0.00 0.00 0.00 29 1007.7
20260508235543 60 270 1.0 1.0 0.00 0.00 0.00 28 1007.7
20260508235039 61 218 0.0 1.0 0.00 0.00 0.00 30 1007.6
20260508234536 61 267 0.0 0.0 0.00 0.00 0.00 29 1007.8
20260508234032 61 264 2.0 2.0 0.00 0.00 0.00 29 1007.8
20260508233527 61 170 1.0 1.0 0.00 0.00 0.00 32 1007.9
20260508233024 61 244 1.0 1.0 0.00 0.00 0.00 30 1007.8
20260508232520 61 294 0.0 1.0 0.00 0.00 0.00 29 1008.0
20260508232017 61 265 1.0 1.0 0.00 0.00 0.00 28 1008.0
20260508231515 61 228 3.0 3.0 0.00 0.00 0.00 28 1008.0
20260508231012 61 312 0.0 1.0 0.00 0.00 0.00 29 1008.1
20260508230509 61 290 0.0 0.0 0.00 0.00 0.00 29 1008.0
20260508230005 61 306 1.0 2.0 0.00 0.00 0.00 28 1008.3
20260508225503 62 272 1.0 1.0 0.00 0.00 0.00 30 1008.2
20260508224959 62 273 0.0 0.0 0.00 0.00 0.00 29 1008.1
20260508224456 62 314 0.0 0.0 0.00 0.00 0.00 29 1008.1
20260508223954 62 279 1.0 2.0 0.00 0.00 0.00 29 1008.2
20260508223452 63 256 2.0 3.0 0.00 0.00 0.00 28 1008.1
20260508222949 62 276 2.0 2.0 0.00 0.00 0.00 28 1008.2
20260508222446 63 171 3.0 5.0 0.00 0.00 0.00 28 1008.0
20260508221942 63 263 1.0 1.0 0.00 0.00 0.00 29 1008.4
20260508221439 63 274 0.0 1.0 0.00 0.00 0.00 29 1008.3
20260508220935 64 273 3.0 3.0 0.00 0.00 0.00 26 1008.4
20260508220431 65 279 1.0 2.0 0.00 0.00 0.00 28 1008.3
20260508215928 65 261 0.0 0.0 0.00 0.00 0.00 27 1008.3
20260508215425 65 278 2.0 2.0 0.00 0.00 0.00 27 1008.4
20260508214921 65 282 1.0 2.0 0.00 0.00 0.00 27 1008.2
20260508214419 65 301 1.0 1.0 0.00 0.00 0.00 29 1008.2
20260508213915 67 247 2.0 3.0 0.00 0.00 0.00 27 1008.4
20260508213413 67 274 0.0 1.0 0.00 0.00 0.00 30 1008.4
20260508212908 66 271 2.0 2.0 0.00 0.00 0.00 28 1008.5
20260508212405 66 279 3.0 3.0 0.00 0.00 0.00 27 1008.5
20260508211901 66 319 3.0 6.0 0.00 0.00 0.00 27 1008.5
20260508211356 68 261 1.0 2.0 0.00 0.00 0.00 26 1008.5
20260508210854 68 273 0.0 1.0 0.00 0.00 0.00 28 1008.7
20260508210350 67 272 0.0 1.0 0.00 0.00 0.00 27 1008.6
20260508205847 67 290 2.0 2.0 0.00 0.00 0.00 27 1008.7
20260508205344 67 284 3.0 3.0 0.00 0.00 0.00 27 1008.6
20260508204840 67 271 0.0 1.0 0.00 0.00 0.00 29 1008.8
20260508204337 67 276 4.0 5.0 0.00 0.00 0.00 27 1009.0
20260508203833 66 267 0.0 1.0 0.00 0.00 0.00 27 1009.0
20260508203329 66 271 1.0 1.0 0.00 0.00 0.00 26 1008.8
20260508202825 66 275 1.0 1.0 0.00 0.00 0.00 28 1008.9
20260508202322 67 287 4.0 6.0 0.00 0.00 0.00 26 1009.1
20260508201814 66 267 3.0 3.0 0.00 0.00 0.00 28 1009.2
20260508201311 65 230 0.0 1.0 0.00 0.00 0.00 27 1009.2
20260508200807 65 279 2.0 2.0 0.00 0.00 0.00 27 1009.3
20260508200303 67 270 1.0 2.0 0.00 0.00 0.00 26 1009.2
20260508195800 65 275 0.0 0.0 0.00 0.00 0.00 30 1009.2
20260508195256 65 81 1.0 2.0 0.00 0.00 0.00 28 1009.3
20260508194753 66 271 1.0 1.0 0.00 0.00 0.00 29 1009.4
20260508194250 67 232 0.0 1.0 0.00 0.00 0.00 27 1009.4
20260508193747 68 228 1.0 1.0 0.00 0.00 0.00 26 1009.4
20260508193244 67 286 5.0 7.0 0.00 0.00 0.00 28 1009.5
20260508192740 66 259 1.0 1.0 0.00 0.00 0.00 29 1009.9
20260508192237 67 249 1.0 1.0 0.00 0.00 0.00 26 1009.8
20260508191735 66 286 0.0 0.0 0.00 0.00 0.00 27 1009.8
20260508191231 67 278 3.0 5.0 0.00 0.00 0.00 27 1009.9
20260508190728 67 272 1.0 2.0 0.00 0.00 0.00 27 1009.8
20260508190224 66 299 0.0 1.0 0.00 0.00 0.00 27 1009.9
20260508185721 67 280 3.0 5.0 0.00 0.00 0.00 27 1010.1
20260508185219 66 282 3.0 3.0 0.00 0.00 0.00 28 1010.0
20260508184716 67 219 3.0 3.0 0.00 0.00 0.00 25 1010.0
20260508184213 68 311 0.0 0.0 0.00 0.00 0.00 27 1009.8
20260508183710 68 278 2.0 2.0 0.00 0.00 0.00 26 1010.0
20260508183206 66 278 1.0 2.0 0.00 0.00 0.00 28 1010.2
20260508182702 66 187 1.0 2.0 0.00 0.00 0.00 27 1010.1
20260508182159 64 308 0.0 0.0 0.00 0.00 0.00 29 1010.2
20260508181655 64 269 3.0 5.0 0.00 0.00 0.00 27 1010.4
20260508181152 64 271 1.0 3.0 0.00 0.00 0.00 28 1010.1
20260508180648 64 263 1.0 2.0 0.00 0.00 0.00 28 1010.4
20260508180145 65 298 1.0 2.0 0.00 0.00 0.00 28 1010.5
20260508175642 67 274 3.0 3.0 0.00 0.00 0.00 26 1010.4
20260508175138 66 274 3.0 3.0 0.00 0.00 0.00 27 1010.5
20260508174636 64 279 1.0 2.0 0.00 0.00 0.00 28 1010.5
20260508174133 66 243 0.0 0.0 0.00 0.00 0.00 31 1010.5
20260508173630 67 259 1.0 1.0 0.00 0.00 0.00 27 1010.6
20260508173126 65 232 1.0 1.0 0.00 0.00 0.00 26 1010.8
20260508172623 65 266 0.0 1.0 0.00 0.00 0.00 27 1010.9
20260508172119 67 247 7.0 9.0 0.00 0.00 0.00 25 1010.7
20260508171616 65 267 2.0 2.0 0.00 0.00 0.00 28 1010.9
20260508171113 68 264 0.0 1.0 0.00 0.00 0.00 27 1011.0
20260508170610 68 261 3.0 3.0 0.00 0.00 0.00 28 1011.1
20260508170107 68 275 0.0 1.0 0.00 0.00 0.00 29 1011.0
20260508165604 68 269 1.0 2.0 0.00 0.00 0.00 26 1011.3
20260508165101 67 265 0.0 0.0 0.00 0.00 0.00 27 1011.6
20260508164557 66 263 0.0 1.0 0.00 0.00 0.00 27 1011.5
20260508164054 67 306 1.0 1.0 0.00 0.00 0.00 27 1011.4
20260508163552 65 282 0.0 0.0 0.00 0.00 0.00 37 1011.4
20260508163048 66 261 0.0 1.0 0.00 0.00 0.00 29 1011.4
20260508162545 64 265 2.0 3.0 0.00 0.00 0.00 32 1011.8
20260508162043 61 250 1.0 2.0 0.00 0.00 0.00 35 1011.7
20260508161539 64 115 3.0 5.0 0.00 0.00 0.00 36 1011.5
20260508161037 62 261 0.0 0.0 0.00 0.00 0.00 40 1011.6
20260508160535 64 302 1.0 3.0 0.00 0.00 0.00 35 1011.6
20260508160032 61 10 1.0 2.0 0.00 0.00 0.00 36 1011.8
20260508155529 62 138 3.0 5.0 0.00 0.00 0.00 36 1011.6
20260508155026 64 276 0.0 0.0 0.00 0.00 0.00 34 1011.8
20260508154523 61 261 0.0 0.0 0.00 0.00 0.00 40 1011.7
20260508154020 63 281 0.0 1.0 0.00 0.00 0.00 37 1011.8
20260508153516 62 87 1.0 2.0 0.00 0.00 0.00 38 1011.7
20260508153013 61 214 1.0 1.0 0.00 0.00 0.00 40 1011.7
20260508152510 61 108 3.0 5.0 0.00 0.00 0.00 42 1011.8
20260508152005 61 272 0.0 0.0 0.00 0.00 0.00 42 1011.8
20260508151503 61 267 0.0 0.0 0.00 0.00 0.00 43 1012.0
20260508150959 63 261 1.0 1.0 0.00 0.00 0.00 38 1012.0
20260508150456 61 256 0.0 0.0 0.00 0.00 0.00 40 1012.0
20260508145951 62 332 4.0 5.0 0.00 0.00 0.00 40 1012.0
20260508145448 61 266 2.0 2.0 0.00 0.00 0.00 40 1012.0
20260508144945 60 240 3.0 3.0 0.00 0.00 0.00 45 1012.1
20260508144442 60 246 1.0 2.0 0.00 0.00 0.00 44 1012.0
20260508143940 61 119 1.0 2.0 0.00 0.00 0.00 45 1012.1
20260508143437 60 326 0.0 0.0 0.00 0.00 0.00 49 1012.1
20260508142933 57 299 0.0 0.0 0.00 0.00 0.00 50 1012.2
20260508142431 60 98 3.0 3.0 0.00 0.00 0.00 47 1012.1
20260508141927 61 67 2.0 3.0 0.00 0.00 0.00 50 1012.3
20260508141424 58 146 1.0 2.0 0.00 0.00 0.00 55 1012.3
20260508140921 59 81 2.0 2.0 0.00 0.00 0.00 52 1012.3
20260508140418 57 20 1.0 1.0 0.00 0.00 0.00 52 1012.0
20260508135914 58 100 1.0 1.0 0.00 0.00 0.00 53 1012.4
20260508135411 58 119 1.0 2.0 0.00 0.00 0.00 56 1012.6
20260508134907 58 193 0.0 0.0 0.00 0.00 0.00 56 1012.4
20260508134403 58 252 2.0 3.0 0.00 0.00 0.00 57 1012.4
20260508133901 57 196 0.0 0.0 0.00 0.00 0.00 59 1012.2
20260508133358 56 128 0.0 0.0 0.00 0.00 0.00 61 1012.2
20260508132855 55 71 0.0 0.0 0.00 0.00 0.00 61 1012.4
20260508132353 56 190 0.0 0.0 0.00 0.00 0.00 60 1012.5
20260508131849 55 31 0.0 0.0 0.00 0.00 0.00 63 1012.6
20260508131345 54 210 0.0 0.0 0.00 0.00 0.00 66 1012.5
20260508130842 53 208 0.0 0.0 0.00 0.00 0.00 66 1012.7
20260508130338 52 112 0.0 0.0 0.00 0.00 0.00 68 1012.6
20260508125835 51 76 0.0 0.0 0.00 0.00 0.00 68 1012.6
20260508125331 51 89 0.0 0.0 0.00 0.00 0.00 68 1012.5
20260508124829 50 186 0.0 1.0 0.00 0.00 0.00 69 1012.5
20260508124326 50 131 1.0 1.0 0.00 0.00 0.00 70 1012.7
20260508123824 49 307 1.0 2.0 0.00 0.00 0.00 71 1012.7
20260508123322 49 224 0.0 0.0 0.00 0.00 0.00 72 1012.8
20260508122818 49 95 0.0 0.0 0.00 0.00 0.00 71 1012.7
20260508122315 49 90 0.0 0.0 0.00 0.00 0.00 71 1012.6
20260508121813 48 95 0.0 0.0 0.00 0.00 0.00 74 1012.7
20260508121311 46 100 0.0 0.0 0.00 0.00 0.00 77 1012.5
20260508120808 45 123 0.0 0.0 0.00 0.00 0.00 78 1012.6
20260508120306 44 210 0.0 0.0 0.00 0.00 0.00 79 1012.5
20260508115803 44 124 0.0 0.0 0.00 0.00 0.00 80 1012.3
20260508115300 43 101 1.0 1.0 0.00 0.00 0.00 83 1012.3
20260508114757 42 211 0.0 0.0 0.00 0.00 0.00 85 1012.1
20260508114254 41 233 0.0 0.0 0.00 0.00 0.00 87 1012.2
20260508113750 40 222 0.0 0.0 0.00 0.00 0.00 89 1012.1
20260508113249 39 228 0.0 0.0 0.00 0.00 0.00 92 1012.0
20260508112745 37 259 0.0 0.0 0.00 0.00 0.00 94 1012.0
20260508112242 37 268 0.0 0.0 0.00 0.00 0.00 95 1012.2
20260508111738 36 270 0.0 0.0 0.00 0.00 0.00 95 1012.3
20260508111236 36 269 0.0 0.0 0.00 0.00 0.00 95 1012.2
20260508110732 36 258 0.0 0.0 0.00 0.00 0.00 95 1012.2
20260508110230 35 261 0.0 0.0 0.00 0.00 0.00 95 1012.1
20260508105724 35 259 0.0 0.0 0.00 0.00 0.00 95 1012.2
20260508105221 35 257 0.0 0.0 0.00 0.00 0.00 95 1012.0
20260508104718 35 295 0.0 0.0 0.00 0.00 0.00 94 1012.0
20260508104215 34 295 0.0 0.0 0.00 0.00 0.00 94 1011.8
20260508103713 34 295 0.0 0.0 0.00 0.00 0.00 94 1012.2
20260508103210 34 295 0.0 0.0 0.00 0.00 0.00 94 1011.7
20260508102707 34 294 0.0 0.0 0.00 0.00 0.00 94 1011.7
20260508102205 34 295 0.0 0.0 0.00 0.00 0.00 93 1011.9
20260508101702 34 292 0.0 0.0 0.00 0.00 0.00 93 1011.9
20260508101159 34 292 0.0 0.0 0.00 0.00 0.00 93 1012.1
20260508100657 34 292 0.0 0.0 0.00 0.00 0.00 93 1012.0
20260508100155 34 292 0.0 0.0 0.00 0.00 0.00 93 1012.0
20260508095651 35 289 0.0 0.0 0.00 0.00 0.00 93 1012.1
20260508095148 35 287 0.0 0.0 0.00 0.00 0.00 93 1011.9
20260508094644 35 286 0.0 0.0 0.00 0.00 0.00 93 1012.0
20260508094142 35 286 0.0 0.0 0.00 0.00 0.00 93 1012.0
20260508093639 36 286 0.0 0.0 0.00 0.00 0.00 93 1012.2
20260508093136 36 286 0.0 0.0 0.00 0.00 0.00 93 1012.1
20260508092633 35 286 0.0 0.0 0.00 0.00 0.00 92 1012.2
20260508092132 35 286 0.0 0.0 0.00 0.00 0.00 92 1012.1
20260508091629 35 286 0.0 0.0 0.00 0.00 0.00 92 1012.1
20260508091126 35 286 0.0 0.0 0.00 0.00 0.00 91 1012.3
20260508090624 35 286 0.0 0.0 0.00 0.00 0.00 91 1012.3